KU9TRY Weather Reports


time (UTC)temp
C
wind
direction
speed
KPH
gust
KPH
rain 1hr
cm
rain 24hr
cm
rain mn
cm
humidity
%
barometer
mb
20260504014032 10 291 0.0 0.0 0.00 0.00 0.00 71 1016.1
20260504013529 10 289 0.0 0.0 0.00 0.00 0.00 74 1015.8
20260504013026 10 289 0.0 0.0 0.00 0.00 0.00 71 1016.0
20260504012524 11 289 0.0 0.0 0.00 0.00 0.00 66 1016.0
20260504012022 11 289 0.0 0.0 0.00 0.00 0.00 68 1015.8
20260504011518 11 289 0.0 0.0 0.00 0.00 0.00 66 1015.9
20260504011014 11 289 0.0 0.0 0.00 0.00 0.00 63 1016.0
20260504010510 12 289 0.0 0.0 0.00 0.00 0.00 59 1015.8
20260504010006 12 288 0.0 0.0 0.00 0.00 0.00 63 1016.1
20260504005503 12 288 0.0 0.0 0.00 0.00 0.00 58 1016.0
20260504005000 12 288 0.0 0.0 0.00 0.00 0.00 57 1016.0
20260504004458 13 287 0.0 0.0 0.00 0.00 0.00 55 1016.1
20260504003955 13 280 0.0 0.0 0.00 0.00 0.00 58 1015.6
20260504003451 13 280 0.0 0.0 0.00 0.00 0.00 57 1015.8
20260504002948 14 280 0.0 0.0 0.00 0.00 0.00 54 1016.1
20260504002444 15 276 0.0 0.0 0.00 0.00 0.00 55 1015.9
20260504001942 15 276 1.6 1.6 0.00 0.00 0.00 49 1015.8
20260504001439 15 274 0.0 1.6 0.00 0.00 0.00 47 1016.1
20260504000936 15 265 3.2 3.2 0.00 0.00 0.00 49 1015.9
20260504000433 15 273 1.6 1.6 0.00 0.00 0.00 45 1016.2
20260503235930 15 270 3.2 3.2 0.00 0.00 0.00 48 1016.3
20260503235428 15 266 1.6 1.6 0.00 0.00 0.00 45 1016.4
20260503234925 15 266 0.0 0.0 0.00 0.00 0.00 45 1016.3
20260503234423 15 266 1.6 1.6 0.00 0.00 0.00 47 1016.6
20260503233920 15 254 3.2 1.6 0.00 0.00 0.00 48 1016.5
20260503233417 15 264 3.2 3.2 0.00 0.00 0.00 45 1016.5
20260503232913 15 272 1.6 1.6 0.00 0.00 0.00 45 1016.5
20260503232410 15 275 1.6 1.6 0.00 0.00 0.00 45 1016.8
20260503231908 15 277 1.6 1.6 0.00 0.00 0.00 47 1016.5
20260503231405 15 276 1.6 1.6 0.00 0.00 0.00 50 1016.5
20260503230901 16 277 1.6 0.0 0.00 0.00 0.00 49 1016.5
20260503230358 16 278 1.6 1.6 0.00 0.00 0.00 48 1016.7
20260503225856 16 278 0.0 0.0 0.00 0.00 0.00 43 1016.6
20260503225351 16 267 1.6 1.6 0.00 0.00 0.00 43 1016.7
20260503224848 16 264 3.2 3.2 0.00 0.00 0.00 45 1016.8
20260503224345 16 260 3.2 3.2 0.00 0.00 0.00 47 1016.8
20260503223843 16 268 1.6 1.6 0.00 0.00 0.00 43 1016.8
20260503223341 17 276 0.0 0.0 0.00 0.00 0.00 38 1016.9
20260503222836 16 311 0.0 0.0 0.00 0.00 0.00 40 1016.9
20260503222335 16 270 1.6 1.6 0.00 0.00 0.00 46 1016.9
20260503221832 16 291 1.6 1.6 0.00 0.00 0.00 44 1017.2
20260503221331 17 295 1.6 1.6 0.00 0.00 0.00 43 1017.1
20260503220826 17 330 0.0 0.0 0.00 0.00 0.00 35 1017.2
20260503220324 17 293 1.6 1.6 0.00 0.00 0.00 39 1017.4
20260503215820 17 323 0.0 1.6 0.00 0.00 0.00 39 1017.5
20260503215318 17 305 1.6 1.6 0.00 0.00 0.00 34 1017.5
20260503214815 18 310 1.6 1.6 0.00 0.00 0.00 38 1017.7
20260503214312 18 307 0.0 0.0 0.00 0.00 0.00 33 1017.8
20260503213810 17 342 1.6 1.6 0.00 0.00 0.00 32 1017.9
20260503213307 18 265 1.6 1.6 0.00 0.00 0.00 37 1017.9
20260503212804 18 277 1.6 1.6 0.00 0.00 0.00 31 1017.9
20260503212302 18 327 1.6 1.6 0.00 0.00 0.00 34 1018.2
20260503211759 18 325 0.0 0.0 0.00 0.00 0.00 30 1018.1
20260503211255 18 327 3.2 3.2 0.00 0.00 0.00 32 1018.0
20260503210755 18 340 3.2 3.2 0.00 0.00 0.00 31 1018.0
20260503210253 18 337 0.0 0.0 0.00 0.00 0.00 33 1018.2
20260503205748 18 356 3.2 3.2 0.00 0.00 0.00 30 1018.3
20260503205245 18 351 8.0 9.7 0.00 0.00 0.00 31 1018.3
20260503204741 18 80 1.6 3.2 0.00 0.00 0.00 34 1018.3
20260503204239 18 110 1.6 1.6 0.00 0.00 0.00 32 1018.4
20260503203736 18 324 1.6 1.6 0.00 0.00 0.00 32 1018.5
20260503203234 18 315 0.0 0.0 0.00 0.00 0.00 33 1018.6
20260503202731 17 355 8.0 9.7 0.00 0.00 0.00 32 1018.7
20260503202229 18 312 1.6 1.6 0.00 0.00 0.00 35 1018.9
20260503201726 18 346 3.2 6.4 0.00 0.00 0.00 36 1018.9
20260503201224 18 305 3.2 1.6 0.00 0.00 0.00 41 1019.1
20260503200720 18 135 6.4 11.3 0.00 0.00 0.00 32 1018.9
20260503200216 17 352 1.6 3.2 0.00 0.00 0.00 37 1019.2
20260503195713 18 342 1.6 1.6 0.00 0.00 0.00 34 1019.5
20260503195210 17 1 1.6 1.6 0.00 0.00 0.00 35 1019.4
20260503194707 18 27 3.2 4.8 0.00 0.00 0.00 35 1019.4
20260503194203 17 237 3.2 3.2 0.00 0.00 0.00 36 1019.6
20260503193700 17 331 1.6 1.6 0.00 0.00 0.00 35 1019.6
20260503193155 17 343 3.2 1.6 0.00 0.00 0.00 36 1019.8
20260503192651 17 33 11.3 14.5 0.00 0.00 0.00 34 1019.7
20260503192147 17 9 1.6 3.2 0.00 0.00 0.00 37 1019.9
20260503191643 17 293 1.6 1.6 0.00 0.00 0.00 33 1019.8
20260503191141 17 340 3.2 3.2 0.00 0.00 0.00 36 1020.0
20260503190638 17 352 4.8 4.8 0.00 0.00 0.00 33 1020.1
20260503190134 17 331 3.2 3.2 0.00 0.00 0.00 36 1020.2
20260503185631 17 332 1.6 3.2 0.00 0.00 0.00 37 1020.1
20260503185126 17 347 4.8 4.8 0.00 0.00 0.00 41 1020.1
20260503184621 17 21 3.2 4.8 0.00 0.00 0.00 35 1020.4
20260503184118 16 294 1.6 3.2 0.00 0.00 0.00 35 1020.5
20260503183615 17 62 4.8 6.4 0.00 0.00 0.00 34 1020.7
20260503183112 16 315 0.0 1.6 0.00 0.00 0.00 39 1020.6
20260503182611 16 338 1.6 1.6 0.00 0.00 0.00 37 1020.9
20260503182108 16 305 1.6 1.6 0.00 0.00 0.00 36 1020.9
20260503181605 16 228 4.8 4.8 0.00 0.00 0.00 36 1020.6
20260503181102 16 168 4.8 6.4 0.00 0.00 0.00 38 1020.8
20260503180559 16 16 4.8 6.4 0.00 0.00 0.00 41 1020.9
20260503180056 16 349 4.8 6.4 0.00 0.00 0.00 40 1021.1
20260503175553 16 347 4.8 4.8 0.00 0.00 0.00 38 1021.1
20260503175050 16 353 6.4 6.4 0.00 0.00 0.00 44 1021.1
20260503174547 16 55 8.0 9.7 0.00 0.00 0.00 41 1021.2
20260503174044 15 318 1.6 1.6 0.00 0.00 0.00 44 1021.1
20260503173539 16 322 3.2 4.8 0.00 0.00 0.00 41 1021.4
20260503173035 15 346 4.8 4.8 0.00 0.00 0.00 41 1021.3
20260503172533 15 14 4.8 4.8 0.00 0.00 0.00 41 1021.4
20260503172030 15 245 3.2 3.2 0.00 0.00 0.00 41 1021.6
20260503171526 15 284 0.0 0.0 0.00 0.00 0.00 44 1021.5
20260503171024 16 183 8.0 9.7 0.00 0.00 0.00 40 1021.6
20260503170520 15 250 3.2 3.2 0.00 0.00 0.00 42 1021.5
20260503150913 12 334 1.6 1.6 0.00 0.00 0.00 71 1022.7
20260503150409 12 349 6.4 4.8 0.00 0.00 0.00 71 1022.7
20260503131302 7 324 0.0 0.0 0.00 0.00 0.00 95 1022.8
20260503130800 6 324 0.0 0.0 0.00 0.00 0.00 95 1022.8
20260503130257 6 324 0.0 0.0 0.00 0.00 0.00 95 1022.8
20260503110650 3 297 0.0 0.0 0.00 0.00 0.00 99 1021.7
20260503110148 3 297 0.0 0.0 0.00 0.00 0.00 99 1021.4
20260503100114 3 297 0.0 0.0 0.00 0.00 0.00 98 1021.0
20260503081504 4 306 0.0 0.0 0.00 0.00 0.00 98 1020.9
20260503081001 4 306 0.0 0.0 0.00 0.00 0.00 98 1020.7
20260503080457 4 306 0.0 0.0 0.00 0.00 0.00 98 1020.9
20260503072933 5 306 0.0 0.0 0.00 0.00 0.00 97 1020.6
20260503072431 5 306 0.0 0.0 0.00 0.00 0.00 97 1020.3
20260503071928 5 306 0.0 0.0 0.00 0.00 0.00 97 1020.4
20260503071425 5 306 0.0 0.0 0.00 0.00 0.00 97 1020.5
20260503070921 5 306 0.0 0.0 0.00 0.00 0.00 97 1020.5
20260503070418 5 306 0.0 0.0 0.00 0.00 0.00 97 1020.5
20260503054832 5 306 0.0 0.0 0.00 0.00 0.00 96 1020.4
20260503054327 5 306 0.0 0.0 0.00 0.00 0.00 96 1020.4
20260503053826 5 306 0.0 0.0 0.00 0.00 0.00 96 1020.4
20260503053324 5 306 0.0 0.0 0.00 0.00 0.00 96 1020.3
20260503052820 5 306 0.0 0.0 0.00 0.00 0.00 96 1020.2
20260503052317 5 306 0.0 0.0 0.00 0.00 0.00 96 1020.3
20260503051813 5 306 0.0 0.0 0.00 0.00 0.00 96 1020.3
20260503051309 5 306 0.0 0.0 0.00 0.00 0.00 96 1020.3
20260503050806 5 306 0.0 0.0 0.00 0.00 0.00 96 1020.1
20260503050302 5 306 0.0 0.0 0.00 0.00 0.00 96 1020.0
20260503045800 5 306 0.0 0.0 0.00 0.00 0.00 96 1020.1
20260503045258 5 306 0.0 0.0 0.00 0.00 0.00 96 1020.0
20260503044754 5 306 0.0 0.0 0.00 0.00 0.00 95 1019.9
20260503044251 6 306 0.0 0.0 0.00 0.00 0.00 95 1019.9
20260503043748 5 306 0.0 0.0 0.00 0.00 0.00 96 1019.9
20260503043245 6 306 0.0 0.0 0.00 0.00 0.00 95 1019.9
20260503042741 6 306 0.0 0.0 0.00 0.00 0.00 95 1020.0
20260503042238 6 306 0.0 0.0 0.00 0.00 0.00 95 1019.8
20260503041734 6 306 0.0 0.0 0.00 0.00 0.00 95 1020.0
20260503041232 6 306 0.0 0.0 0.00 0.00 0.00 95 1020.0
20260503040729 6 306 0.0 0.0 0.00 0.00 0.00 95 1019.8
20260503040227 6 306 0.0 0.0 0.00 0.00 0.00 95 1019.9
20260503035723 6 306 0.0 0.0 0.00 0.00 0.00 95 1019.7
20260503035221 6 306 0.0 0.0 0.00 0.00 0.00 94 1019.7
20260503034718 6 306 0.0 0.0 0.00 0.00 0.00 94 1019.7
20260503034215 6 306 0.0 0.0 0.00 0.00 0.00 94 1019.9
20260503033712 7 306 0.0 0.0 0.00 0.00 0.00 94 1019.6
20260503033209 7 306 0.0 0.0 0.00 0.00 0.00 94 1019.6
20260503032708 7 306 0.0 0.0 0.00 0.00 0.00 94 1019.7
20260503032206 7 306 0.0 0.0 0.00 0.00 0.00 94 1019.6
20260503031703 7 306 0.0 0.0 0.00 0.00 0.00 94 1019.6
20260503031201 7 306 0.0 0.0 0.00 0.00 0.00 93 1019.7
20260503030656 7 306 0.0 0.0 0.00 0.00 0.00 93 1019.5
20260503030153 7 306 0.0 0.0 0.00 0.00 0.00 93 1019.6
20260503025650 7 306 0.0 0.0 0.00 0.00 0.00 92 1019.3
20260503025148 7 306 0.0 0.0 0.00 0.00 0.00 92 1019.5
20260503024644 7 306 0.0 0.0 0.00 0.00 0.00 91 1019.6
20260503024142 7 306 0.0 0.0 0.00 0.00 0.00 90 1019.5
20260503023638 7 306 0.0 0.0 0.00 0.00 0.00 91 1019.4
20260503023135 8 306 0.0 0.0 0.00 0.00 0.00 89 1019.4
20260503022631 8 306 0.0 0.0 0.00 0.00 0.00 89 1019.2
20260503022126 8 306 0.0 0.0 0.00 0.00 0.00 89 1019.3
20260503021623 8 306 0.0 0.0 0.00 0.00 0.00 88 1019.1
20260503021120 8 306 0.0 0.0 0.00 0.00 0.00 87 1019.1
20260503020617 8 306 0.0 0.0 0.00 0.00 0.00 87 1019.2
20260503020114 8 306 0.0 0.0 0.00 0.00 0.00 87 1019.3
20260503015611 8 306 0.0 0.0 0.00 0.00 0.00 86 1019.1
20260503015108 8 306 0.0 0.0 0.00 0.00 0.00 86 1019.1
20260503014603 8 306 1.6 1.6 0.00 0.00 0.00 86 1019.0